Location: Les Coudrans
(46.1056°N, 1.1158°W)
Time: 08:38:17
(UTC+00:00)

MOS 1 Rocket - Visible Passes

Search period start: 21 June 2021 00:00
Search period end: 01 July 2021 00:00
Orbit: 614 x 830 km, 97.4° (Epoch: 20 June)

Date Brightness Start Highest point End Pass type
(mag) Time Alt. Az. Time Alt. Az. Time Alt. Az.
21 Jun 6.2 03:02:23 10° E 03:04:37 14° ENE 03:06:53 10° NNE visible
23 Jun 6.2 03:01:54 10° E 03:04:12 14° ENE 03:06:32 10° NNE visible
25 Jun 6.2 03:01:24 10° E 03:03:46 15° ENE 03:06:11 10° NNE visible
27 Jun 6.2 03:00:53 10° E 03:03:21 15° ENE 03:05:52 10° NNE visible
29 Jun 6.2 03:00:22 10° E 03:02:55 15° ENE 03:05:33 10° NNE visible
